Location: *
(51.0333°S, 178.4667°E)
Time: 18:47:37
(UTC+00:00)

STARLINK-64 - Pass Details

Date: 15 November 2019
Orbit: 536 x 540 km, 53.0° (Epoch: 08 December)

Event Time Altitude Azimuth Distance (km) Brightness Sun altitude
Rises 10:32:35 0° 254° (WSW) 2,795 7.7 -18.4°
Reaches altitude 10° 10:34:53 10° 253° (WSW) 1,875 6.8 -18.5°
Maximum altitude 10:39:08 84° 164° (SSE) 566 3.6 -18.7°
Enters shadow 10:41:21 27° 77° (ENE) 1,083 4.8 -18.9°
